IZ3VCM Weather Reports


Display with metric or nautical units.
time (UTC)temp
F
wind
direction
speed
MPH
gust
MPH
rain 1hr
in
rain 24hr
in
rain mn
in
humidity
%
barometer
mb
20260901110008 90 77 4.0 7.0 0.00 0.00 0.00 56 1017.0
20260901104506 89 56 5.0 9.0 0.00 0.00 0.00 58 1017.1
20260901103008 89 90 5.0 6.0 0.00 0.00 0.00 59 1017.2
20260901101506 88 45 5.0 10.0 0.00 0.00 0.00 59 1017.4
20260901100007 87 60 6.0 7.0 0.00 0.00 0.00 60 1017.5
20260901094505 87 64 6.0 8.0 0.00 0.00 0.00 60 1017.5
20260901093008 86 59 5.0 6.0 0.00 0.00 0.00 61 1017.6
20260901091505 86 77 7.0 9.0 0.00 0.00 0.00 60 1017.6
20260901090007 86 70 4.0 6.0 0.00 0.00 0.00 60 1017.6
20260901084506 86 49 6.0 6.0 0.00 0.00 0.00 59 1017.5
20260901083007 85 61 5.0 6.0 0.00 0.00 0.00 59 1017.5
20260901081505 85 91 4.0 5.0 0.00 0.00 0.00 60 1017.3
20260901080007 84 65 5.0 6.0 0.00 0.00 0.00 59 1017.1
20260901074505 83 65 2.0 4.0 0.00 0.00 0.00 61 1017.1
20260901073007 82 64 4.0 5.0 0.00 0.00 0.00 60 1017.1
20260901071505 82 47 4.0 6.0 0.00 0.00 0.00 61 1017.0
20260901070007 81 71 7.0 8.0 0.00 0.00 0.00 61 1017.0
20260831221505 70 0 0.0 0.0 0.00 0.00 0.00 83 1013.4
20260831220008 71 0 0.0 0.0 0.00 0.00 0.00 82 1013.1
20260831214506 72 0 0.0 0.0 0.00 0.00 0.00 79 1013.1
20260831213008 73 0 0.0 0.0 0.00 0.00 0.00 77 1013.0
20260831211505 75 0 0.0 0.0 0.00 0.00 0.00 75 1012.9
20260831210008 74 0 0.0 0.0 0.00 0.00 0.00 76 1012.7
20260831204506 74 0 0.0 0.0 0.00 0.00 0.00 75 1012.8
20260831203009 75 0 0.0 0.0 0.00 0.00 0.00 74 1012.7
20260831201505 76 0 0.0 0.0 0.00 0.00 0.00 71 1012.4
20260831200007 78 0 0.0 0.0 0.00 0.00 0.00 69 1012.4
20260831194506 80 135 1.0 2.0 0.00 0.00 0.00 65 1012.3
20260831193007 80 135 0.0 2.0 0.00 0.00 0.00 64 1012.3
20260831191505 80 135 1.0 3.0 0.00 0.00 0.00 63 1012.2
20260831190007 81 111 0.0 4.0 0.00 0.00 0.00 62 1012.3
20260831184504 82 150 1.0 2.0 0.00 0.00 0.00 60 1012.0
20260831183007 83 176 2.0 4.0 0.00 0.00 0.00 60 1011.9
20260831181505 82 146 1.0 3.0 0.00 0.00 0.00 61 1011.8
20260831180009 82 0 0.0 0.0 0.00 0.00 0.00 61 1011.6
20260831174505 86 0 0.0 0.0 0.00 0.00 0.00 55 1011.6
20260831173007 89 0 0.0 0.0 0.00 0.00 0.00 53 1011.6
20260831171504 92 0 0.0 0.0 0.00 0.00 0.00 48 1011.7
20260831170007 94 0 0.0 0.0 0.00 0.00 0.00 48 1011.7
20260831164505 97 0 0.0 0.0 0.00 0.00 0.00 47 1011.9
20260831163007 97 0 0.0 0.0 0.00 0.00 0.00 47 1012.0
20260831161504 97 0 0.0 0.0 0.00 0.00 0.00 46 1012.1
20260831160007 97 0 0.0 0.0 0.00 0.00 0.00 46 1012.0
20260831154505 97 0 0.0 0.0 0.00 0.00 0.00 46 1012.0
20260831153007 96 0 0.0 0.0 0.00 0.00 0.00 47 1012.3
20260831151504 96 0 0.0 0.0 0.00 0.00 0.00 47 1012.3
20260831150007 96 345 3.0 6.0 0.00 0.00 0.00 44 1012.5
20260831144505 97 337 0.0 1.0 0.00 0.00 0.00 47 1012.5
20260831143007 97 1 0.0 1.0 0.00 0.00 0.00 46 1012.5
20260831141504 96 292 1.0 3.0 0.00 0.00 0.00 47 1012.5
20260831140007 95 296 2.0 4.0 0.00 0.00 0.00 45 1012.6
20260831134505 95 334 3.0 7.0 0.00 0.00 0.00 45 1012.7
20260831133007 96 292 0.0 2.0 0.00 0.00 0.00 47 1012.7
20260831131504 96 0 0.0 0.0 0.00 0.00 0.00 50 1012.7
20260831130007 95 286 4.0 5.0 0.00 0.00 0.00 45 1013.0
20260831124504 95 312 3.0 6.0 0.00 0.00 0.00 48 1013.1
20260831123006 94 261 2.0 5.0 0.00 0.00 0.00 48 1013.3
20260831121504 95 332 3.0 4.0 0.00 0.00 0.00 47 1013.3
20260831120007 95 292 0.0 1.0 0.00 0.00 0.00 49 1013.5
20260831114504 94 279 1.0 3.0 0.00 0.00 0.00 50 1013.6
20260831113007 93 292 1.0 1.0 0.00 0.00 0.00 49 1013.6
20260831111505 93 229 1.0 5.0 0.00 0.00 0.00 49 1013.8